Home > Weather > Kempen > Past weeks

Flag for Germany Weather for the Past 2 Weeks in Kempen, North Rhine-Westphalia, Germany

Now
46 °F

Partly cloudy.


Feels Like: 37 °F
Forecast: 38 / 43 °F
Wind: 31 mph from Southwest

Location: Duesseldorf

Current Time: Feb 9, 2016 at 1:04:45 AM

Latest Report: Feb 9, 2016 at 12:20 AM


Visibility: N/A

Pressure: 29.42 "Hg

Humidity: 66%

Dew point: 36 °F

Location of KempenLocation

Historic Weather in Kempen — Graph

°F

Kempen Temperature Yesterday

Maximum temperature yesterday: 50 °F (at 7:50 AM)
Minimum temperature yesterday: 41 °F (at 3:20 PM)
Average temperature yesterday: 47 °F

High & Low Weather Summary for the Past Weeks

 TemperatureHumidityPressure
High57 °F (Jan 25, 1:50 PM)100% (Jan 28, 4:20 AM)30.39 "Hg (Jan 28, 4:20 AM)
Low36 °F (Jan 28, 10:50 PM)57% (Jan 28, 2:50 PM)29.24 "Hg (Feb 8, 12:50 PM)
Average47 °F82%29.98 "Hg
* Reported Jan 24 11:20 PM — Feb 8 11:20 PM, Kempen, Weather by CustomWeather, © 2016

Note: Actual official high and low records may vary slightly from our data, if they occured in-between our weather recording intervals... More about our weather records

Advertising

Kempen Weather History for the Previous 24 Hours

 ConditionsComfort  
Time TempWeatherWind HumidityBarometerVisibility
11:20 PM
Mon, Feb 8
46 °FPassing clouds.31 mph66%29.39 "HgN/A
10:50 PM48 °FPassing clouds.31 mph66%29.39 "HgN/A
10:20 PM46 °FLight rain. Partly cloudy.32 mph71%29.39 "HgN/A
9:50 PM46 °FPartly cloudy.29 mph71%29.36 "HgN/A
9:20 PM46 °FRain. Partly cloudy.38 mph76%29.36 "HgN/A
8:50 PM46 °FLight rain. Mostly cloudy.41 mph71%29.36 "HgN/A
8:20 PM46 °FLight rain. Partly cloudy.31 mph71%29.36 "HgN/A
7:50 PM46 °FLight rain. Passing clouds.30 mph71%29.33 "HgN/A
7:20 PM46 °FPartly cloudy.35 mph71%29.33 "HgN/A
6:50 PM46 °FLight rain. Partly cloudy.29 mph71%29.33 "HgN/A
6:20 PM46 °FSprinkles. Passing clouds.32 mph71%29.33 "HgN/A
5:50 PM48 °FPassing clouds.28 mph62%29.30 "HgN/A
5:20 PM46 °FPartly sunny.28 mph71%29.30 "HgN/A
4:50 PM46 °FBroken clouds.25 mph71%29.30 "HgN/A
4:20 PM48 °FScattered clouds.31 mph66%29.30 "HgN/A
3:50 PM46 °FScattered clouds.17 mph76%29.27 "HgN/A
3:20 PM41 °FThunderstorms. Partly sunny.20 mph87%29.27 "HgN/A
2:50 PM50 °FBroken clouds.25 mph62%29.27 "HgN/A
2:20 PM48 °FBroken clouds.20 mph71%29.27 "HgN/A
1:50 PM48 °FPassing clouds.15 mph76%29.27 "HgN/A
1:20 PM43 °FRain showers. Partly sunny.25 mph87%29.27 "HgN/A
12:50 PM50 °FSprinkles. Partly sunny.26 mph71%29.24 "HgN/A
12:20 PM50 °FBroken clouds.22 mph71%29.27 "HgN/A
11:50 AM48 °FScattered clouds.26 mph76%29.27 "HgN/A
11:20 AM48 °FBroken clouds.22 mph82%29.27 "HgN/A
10:50 AM48 °FPartly sunny.21 mph82%29.27 "HgN/A
10:20 AM48 °FPartly sunny.20 mph82%29.27 "HgN/A
9:50 AM46 °FLight rain. Broken clouds.23 mph87%29.27 "HgN/A
9:20 AM48 °FLight rain. Broken clouds.24 mph82%29.30 "HgN/A
8:50 AM48 °FLight rain. Partly sunny.23 mph82%29.30 "HgN/A
8:20 AM48 °FLight rain. Partly sunny.28 mph82%29.30 "HgN/A
7:50 AM50 °FPartly cloudy.29 mph76%29.27 "HgN/A
7:20 AM48 °FRain. Passing clouds.17 mph82%29.30 "HgN/A
6:50 AM46 °FLight rain. Passing clouds.23 mph82%29.27 "HgN/A
6:20 AM46 °FLight rain. Mostly cloudy.21 mph82%29.30 "HgN/A
5:50 AM46 °FLight rain. Mostly cloudy.21 mph82%29.33 "HgN/A
5:20 AM46 °FLight rain. Overcast.22 mph76%29.36 "HgN/A
4:20 AM46 °FOvercast.23 mph76%29.39 "HgN/A
3:50 AM46 °FLight rain. Overcast.23 mph76%29.39 "HgN/A
2:50 AM46 °FPassing clouds.21 mph66%29.45 "HgN/A
2:20 AM46 °FLight rain. Passing clouds.22 mph66%29.45 "HgN/A
1:50 AM46 °FClear.21 mph66%29.47 "Hg10 mi
1:20 AM46 °FClear.21 mph66%29.47 "Hg10 mi
Weather by CustomWeather, © 2016

See weather overviewHow to use our weather pages